Terug naar catalogus

NOAA 17 DEB

ActiefSSO
NORAD 48705·DEBRIS·🇺🇸 United States

Gelanceerd Jun 24, 2002 vanaf Vandenberg Space Force Base

Loading…

Volgende Passages (komende 24 uur)

TLE

VersSource: Space-Track

Epoch: Sep 13, 2026, 15:47 UTC

1 48705U 02032AN  26256.65825290  .00001009  00000-0  37810-3 0  9991
2 48705  98.8286 229.2379 0011589  61.5286 298.7064 14.33935819287215

Volg NOAA 17 DEB in realtime met AllMySat

Download on the App Store